Theta_e
312 309 309 308 308 309 311 311 311 310 310 311 311 310 310 310 311 308 305 305 304 303 303 304 305 306 306 308 309 310 313 315 316 318 321 322 323 323 323 323 322 322 322 321
310 310 310 310 310 310 311 312 311 310 310 311 310 310 307 305 305 304 304 304 303 302 303 303 304 304 305 306 307 308 309 310 311 313 314 314 316 320 319 320 320 319 319 318
311 313 311 312 314 314 312 312 312 313 310 309 308 308 308 306 305 304 303 302 301 301 301 301 303 303 305 305 305 305 306 306 307 309 311 313 314 315 317 318 316 316 316 316
311 311 312 312 313 312 313 310 311 311 310 310 307 309 308 307 304 302 301 301 301 301 302 303 304 304 305 304 305 306 306 306 305 305 306 307 308 310 309 309 311 312 312 310
314 312 311 312 312 309 311 310 310 310 309 309 308 308 307 306 306 303 301 301 301 301 301 301 302 302 302 303 303 303 304 305 306 305 305 304 304 303 304 305 305 305 306 306
310 310 309 310 310 310 308 309 308 305 306 309 307 309 310 308 307 303 301 301 301 300 300 300 300 300 301 302 302 302 302 302 302 302 303 304 303 303 303 302 302 302 301 302
312 310 310 310 311 308 308 308 312 312 309 312 311 309 310 306 305 303 301 301 300 300 300 300 299 300 300 300 300 299 299 300 299 299 299 299 299 300 300 300 300 301 301 300
316 316 310 309 310 311 308 309 309 307 313 312 310 315 313 303 303 303 302 302 300 300 300 300 300 300 299 298 298 297 296 296 295 294 294 293 293 292 292 291 291 291 292 294
313 313 308 308 308 310 312 312 311 312 308 313 311 309 307 303 301 301 301 300 300 300 300 300 301 301 299 297 295 295 293 292 292 291 291 291 290 290 289 289 289 288 288 288
312 311 312 310 310 308 312 309 312 310 307 311 309 310 309 306 303 301 299 299 299 300 301 300 300 300 298 295 293 292 292 291 290 289 289 289 289 288 288 288 287 287 287 287
312 311 311 310 312 312 308 311 311 310 310 307 305 308 307 306 304 301 299 300 300 301 301 299 298 297 295 292 290 290 290 290 290 290 289 289 288 288 288 288 287 287 287 287
311 309 307 311 309 308 308 308 309 313 310 308 309 310 306 305 303 302 301 303 302 300 299 297 295 294 292 290 289 289 289 289 289 289 288 288 288 288 288 288 288 288 288 287
310 306 301 304 304 307 309 309 308 307 306 304 311 308 303 303 302 303 303 302 302 300 297 294 293 291 290 289 289 289 289 288 288 288 288 288 288 288 288 288 287 287 287 287
309 305 304 306 302 305 305 305 304 304 304 303 307 305 303 302 300 301 301 301 302 299 296 294 292 292 290 290 290 289 289 289 289 289 288 288 288 287 287 287 286 285 285 285
305 303 304 305 303 303 302 304 303 303 303 303 303 301 301 299 297 298 298 299 299 297 294 293 293 292 291 291 290 290 289 289 289 289 288 288 288 287 286 285 284 284 284 283
302 298 298 294 299 301 301 300 299 300 300 300 300 300 299 298 297 295 295 297 297 296 294 293 293 293 291 290 290 289 289 289 289 289 288 288 287 286 284 284 283 283 283 282
301 297 294 297 296 293 293 294 296 296 296 296 295 295 292 294 294 294 294 293 293 292 291 291 291 290 290 289 289 289 289 289 289 288 288 287 285 283 283 282 282 282 282 281
298 295 291 289 287 290 294 292 293 294 294 293 290 286 290 293 294 293 292 292 291 291 291 291 290 290 290 289 289 289 289 289 288 287 286 284 283 282 282 281 281 280 281 281
296 295 288 290 286 289 294 292 292 292 291 288 288 287 291 292 290 290 291 291 291 290 290 290 290 290 289 289 289 289 289 288 287 285 283 282 282 281 280 280 280 279 279 279
293 295 293 279 285 288 291 291 292 291 289 289 289 288 290 290 285 288 291 290 290 290 290 290 290 290 289 289 289 288 287 286 284 283 282 282 281 280 280 279 278 278 277 276
284 285 296 294 287 285 289 291 292 288 290 292 292 293 291 288 291 293 291 291 291 290 290 290 290 289 289 288 288 287 286 284 283 283 282 281 280 279 279 278 277 277 276 275
289 288 286 285 286 288 289 289 290 291 291 292 292 292 292 292 292 292 291 291 291 290 290 289 289 289 288 287 287 287 285 283 282 282 281 280 279 279 278 277 277 276 275 273
289 288 286 288 288 290 290 293 293 293 293 292 292 292 291 291 291 291 291 291 290 290 289 289 288 288 287 286 285 285 283 282 282 281 280 279 278 277 277 276 276 274 273 271
289 288 288 287 289 289 291 293 292 292 292 291 291 291 291 291 291 291 290 290 290 289 289 288 287 286 285 285 285 281 281 281 281 280 279 278 277 277 276 276 274 273 273 270
290 288 287 288 290 290 290 291 291 292 291 291 291 291 291 291 290 290 290 290 289 289 288 287 286 284 283 284 283 280 280 280 279 278 278 277 277 277 276 274 273 273 272 268
292 291 290 290 291 291 291 292 291 291 291 291 291 291 291 291 291 290 290 289 288 288 287 286 284 283 283 282 280 279 279 278 278 277 277 276 276 275 274 273 273 274 272 270
Wind_Speed
3 3 7 12 9 3 2 3 6 5 7 2 7 7 14 14 14 5 16 17 17 18 16 15 14 12 9 6 4 5 5 6 6 8 8 9 10 11 12 13 14 16 17 19
3 7 10 3 5 4 4 4 7 8 4 1 5 12 5 12 8 13 18 19 19 19 19 21 23 24 24 20 16 12 10 5 3 3 4 5 5 8 8 10 11 12 13 15
7 5 7 6 3 4 5 5 4 8 5 3 4 7 2 5 15 19 18 19 19 21 23 24 26 30 30 31 29 25 21 16 11 6 2 1 3 5 8 9 8 10 10 11
5 7 7 4 5 6 5 5 5 2 2 3 3 4 6 3 6 10 16 19 19 20 22 23 25 27 28 29 27 27 25 24 22 17 12 9 5 3 3 2 5 10 13 13
7 4 4 3 7 7 6 2 0 0 2 2 4 1 7 8 3 4 10 16 17 17 18 20 22 22 24 23 23 22 21 20 20 20 20 18 14 11 8 6 6 6 8 10
5 1 4 7 2 3 3 3 6 4 3 1 7 6 5 5 6 6 11 14 15 14 16 18 18 19 20 18 18 17 16 16 15 14 14 13 13 14 11 11 10 9 9 9
2 4 2 3 4 2 4 5 3 4 2 5 3 3 6 7 1 16 17 18 14 13 14 15 14 15 15 14 14 14 13 13 12 11 11 11 11 9 9 11 12 12 13 15
5 3 6 3 5 6 5 7 5 5 3 4 5 5 4 4 12 21 21 18 14 12 10 10 10 10 11 11 11 11 13 13 13 13 14 15 14 14 14 13 13 13 12 12
5 4 1 2 2 4 4 4 3 5 2 2 4 1 2 4 5 13 16 14 12 10 7 4 4 7 8 10 11 10 9 9 9 11 12 12 13 15 15 16 16 16 17 17
5 0 4 2 3 3 4 6 3 1 1 5 5 5 5 9 8 7 10 14 13 10 6 3 3 5 4 3 3 4 5 7 9 9 10 11 13 14 15 17 19 19 19 21
4 4 2 4 5 8 1 3 2 4 5 5 2 5 3 9 12 12 15 17 16 13 10 8 7 5 4 1 3 4 4 5 7 8 10 12 14 15 16 17 18 21 23 24
4 4 4 8 3 1 3 7 6 6 6 4 2 8 1 7 14 20 20 19 18 14 13 12 10 7 5 3 2 3 3 6 6 8 10 13 14 16 19 20 23 25 26 27
7 1 2 7 5 1 4 2 2 4 3 5 4 7 1 6 10 16 12 15 18 18 17 14 11 9 7 4 2 1 3 8 11 14 15 17 19 21 23 25 26 28 30 31
5 5 7 8 5 3 3 5 4 4 2 3 10 6 6 7 7 7 11 17 20 21 18 15 12 10 8 5 4 6 8 11 14 18 21 23 25 27 30 31 32 33 33 35
4 5 4 1 4 3 4 8 8 8 6 8 18 11 18 10 5 13 13 13 17 19 18 16 12 11 9 9 11 13 13 14 17 19 22 25 27 30 32 34 36 38 41 43
2 1 3 3 1 4 8 13 5 12 15 14 16 21 16 19 5 5 9 11 16 17 18 17 17 18 16 14 16 16 17 18 20 23 25 26 30 32 33 35 39 42 45 47
5 5 3 5 3 3 9 9 17 13 10 8 11 13 2 4 6 9 10 12 13 14 13 13 12 12 13 15 17 19 19 19 21 23 24 28 31 32 35 39 41 43 46 48
6 5 2 2 3 3 6 3 3 9 9 7 1 3 7 8 8 9 12 13 13 12 12 12 13 16 19 19 19 18 19 20 22 24 27 28 32 36 39 40 42 44 45 46
4 5 2 4 5 7 11 6 7 7 7 6 7 3 8 9 6 9 14 11 8 8 13 17 18 19 20 20 19 20 20 22 24 25 27 32 36 37 39 42 42 43 45 48
4 2 5 3 5 9 7 2 9 6 5 9 12 9 8 12 3 7 18 10 9 12 16 20 21 22 23 21 20 20 21 22 22 24 30 34 37 39 41 41 42 43 45 47
3 2 14 11 6 8 8 6 7 5 8 12 9 11 11 6 18 15 13 17 16 15 16 19 23 24 23 21 21 22 23 23 24 28 32 34 35 38 39 40 41 42 43 45
7 8 4 2 2 7 13 6 7 6 6 8 12 16 18 21 19 20 22 26 22 19 20 22 24 25 24 23 23 24 24 24 26 31 33 33 34 34 35 38 39 40 41 42
2 7 6 11 7 5 19 12 26 26 18 17 19 19 19 19 25 28 29 26 24 24 22 22 25 26 25 23 22 24 24 25 29 32 33 33 33 32 33 35 36 38 37 36
5 7 4 5 6 12 16 25 20 19 24 28 26 26 27 28 29 30 27 25 22 21 23 25 26 24 23 22 25 23 24 26 30 31 32 33 32 33 33 33 32 33 34 33
10 7 4 6 15 18 18 24 31 36 36 35 33 30 29 25 28 27 28 21 22 24 25 25 25 24 22 24 22 24 24 27 28 30 31 31 31 32 32 31 29 31 31 28
22 12 5 9 25 20 21 29 33 28 30 28 25 27 25 25 29 28 23 24 21 22 24 25 24 23 23 22 20 23 25 26 27 29 29 29 30 29 29 30 31 24 27 27
Wind_Direction
169 111 207 208 200 164 172 216 244 264 259 246 272 279 293 318 277 298 118 102 90 80 74 68 63 58 59 76 102 104 127 167 193 189 203 226 250 259 262 259 268 272 272 271
61 224 229 177 174 203 227 239 259 272 266 211 314 294 29 22 31 93 113 105 98 93 84 75 71 70 67 67 66 66 74 93 121 177 221 233 235 234 235 244 254 265 272 275
167 216 157 171 199 206 227 201 241 239 339 281 344 296 132 65 78 80 86 94 88 83 78 73 69 65 64 61 58 55 53 52 51 46 59 171 239 238 242 244 256 258 265 271
231 237 195 185 228 182 273 204 221 212 95 239 42 283 314 150 83 72 89 94 95 92 85 78 72 67 62 58 55 51 51 51 50 46 42 43 46 352 359 318 262 262 266 267
242 188 148 169 218 157 227 128 102 142 183 41 306 116 266 117 130 114 103 108 105 97 89 81 74 71 69 64 57 51 48 45 42 37 40 40 36 29 6 328 301 298 290 286
249 342 167 200 100 168 115 38 32 54 118 284 223 170 274 191 186 147 147 130 118 107 93 86 78 69 61 55 52 50 43 45 41 38 38 37 36 36 27 22 10 356 339 323
215 212 222 159 115 41 95 70 308 337 356 231 128 130 249 322 166 156 151 141 130 117 102 90 76 61 52 46 43 39 38 38 38 35 40 43 41 39 34 24 17 4 359 358
174 292 173 178 188 184 169 160 161 222 225 279 322 244 290 9 91 138 144 139 137 127 110 93 71 51 40 39 33 27 24 24 24 25 27 24 21 23 27 29 28 25 22 11
167 266 129 181 150 136 179 173 161 112 9 270 237 336 185 86 81 132 147 154 151 148 139 103 29 9 19 17 16 18 22 27 26 25 20 14 12 9 10 7 1 0 357 357
203 96 223 173 110 47 150 161 80 29 179 251 285 260 216 194 185 184 173 175 172 175 189 230 295 313 323 341 9 29 34 32 32 29 22 14 10 1 355 354 349 349 346 340
142 127 224 122 198 181 149 198 113 149 163 182 240 257 254 177 187 187 193 195 195 201 217 227 242 254 271 270 103 82 62 44 21 1 355 353 353 348 343 341 337 337 336 332
195 147 168 206 274 324 193 199 172 203 218 234 186 257 10 178 166 179 195 209 214 219 221 228 231 224 217 190 145 111 57 17 6 0 355 349 341 335 333 333 332 330 326 323
179 224 45 342 344 16 186 205 131 86 60 212 215 249 350 139 153 189 223 230 227 226 214 212 213 213 208 201 212 270 353 357 348 344 341 338 334 333 333 332 328 326 321 318
143 160 176 211 177 139 189 167 136 131 159 205 233 281 210 212 205 226 255 264 251 224 215 217 215 222 225 236 273 287 296 315 321 327 330 329 327 328 327 326 324 321 318 315
135 197 164 144 133 141 221 238 160 198 217 221 266 245 264 269 211 248 261 248 225 209 211 218 224 229 237 261 283 291 299 301 302 305 312 314 315 317 319 319 317 316 314 312
10 243 80 307 231 211 259 263 237 235 254 257 255 266 273 286 255 195 211 209 204 208 218 228 237 239 242 258 266 268 266 274 286 293 297 300 306 310 311 311 310 309 308 306
156 137 105 256 64 63 290 222 229 240 225 224 233 244 241 255 235 239 225 210 197 198 208 223 231 234 248 258 250 252 254 268 272 279 287 295 301 304 307 307 307 306 304 303
136 112 94 211 41 284 267 285 247 227 248 207 225 225 213 248 268 215 205 206 218 233 227 232 240 258 258 252 258 257 264 272 281 289 295 301 305 308 309 308 308 307 306 306
163 139 143 164 208 312 290 237 188 175 268 193 187 236 244 236 199 231 219 218 208 255 270 267 269 267 256 252 250 253 260 273 283 292 301 307 310 312 312 312 312 312 311 310
148 56 159 108 172 215 241 263 133 105 284 212 196 217 200 159 162 237 208 216 282 280 271 268 265 254 248 248 251 260 273 282 288 298 307 312 314 314 315 314 315 316 315 313
79 63 215 225 236 279 246 207 127 121 251 185 215 250 231 189 226 262 223 245 288 285 276 273 267 256 243 250 263 275 282 287 295 306 310 312 314 315 314 316 318 317 317 317
157 160 192 139 214 275 195 120 173 207 202 222 243 241 229 237 247 251 265 271 281 275 272 268 258 245 246 257 269 276 282 288 300 309 313 315 314 313 314 317 319 320 323 317
234 192 183 190 203 229 192 210 221 240 245 244 240 243 238 248 259 267 272 273 272 272 268 261 246 242 250 263 274 279 283 294 305 310 313 314 314 316 319 320 323 327 322 316
258 179 212 84 221 226 213 225 235 241 255 270 263 263 270 271 276 274 271 270 268 273 261 254 243 248 258 267 275 278 287 298 305 310 313 314 315 319 321 324 331 326 321 319
212 161 190 266 267 258 249 249 260 270 274 271 272 268 270 275 280 277 270 263 275 266 258 248 248 253 260 270 273 282 291 299 305 309 310 314 315 319 323 326 334 328 325 318
225 233 224 241 253 245 256 268 270 267 271 268 271 267 262 280 282 277 261 275 269 263 254 251 255 261 269 272 277 284 293 300 305 307 309 312 314 320 325 327 328 332 328 325